Terug naar catalogus

STARLINK-4728

ActiefCommunicatieVLEO
NORAD 53793·PAYLOAD·🇺🇸 United States

Gelanceerd Sep 11, 2022 vanaf Cape Canaveral Space Force Station

Loading…

Volgende Passages (komende 24 uur)

TLE

VersSource: CelesTrak SupGP

Epoch: Sep 14, 2026, 21:46 UTC

1 53793C 22111W   26257.90743056 -.00020196  00000+0 -64957-3 0  2570
2 53793  53.1584 132.0592 0001739  79.5284 251.2429 15.31705138    12

Volg STARLINK-4728 in realtime met AllMySat

Download on the App Store